Terminal Aerodrome Forecast
Issued by NWS Billings, MT

Home | Current Version | Previous Version | Graphics & Text | Print | Product List | Glossary On
Versions: 1 2 3 4 5 6 7 8 9 10 11 12 13
000
FTUS45 KBYZ 211737
TAFMLS
TAF
KMLS 211737Z 2118/2218 31009G20KT P6SM VCSH SCT060 BKN090
     FM220100 32015KT P6SM -SHRA OVC050
     FM221400 35020G25KT P6SM VCSH BKN050=

USA.gov is the U.S. government's official web portal to all federal, state and local government web resources and services.